Regional Weather Roundup
Issued by NWS Cleveland, OH

Home | Current Version | Previous Version | Text Only | Print | Product List | Glossary Off
Versions: 1 2 3 4 5 6 7 8 9 10 11 12 13 14 15 16 17 18 19 20 21 22 23 24 25 26 27 28 29 30 31 32 33 34 35 36 37 38 39 40 41 42 43 44 45 46 47 48 49 50

000
ASUS41 KCLE 222002
RWRCLE
OHIO REGIONAL WEATHER ROUNDUP
NATIONAL WEATHER SERVICE CLEVELAND, OH
300 PM EST WED NOV 22 2017

NOTE: "FAIR" INDICATES FEW OR NO CLOUDS BELOW 12,000 FEET WITH NO
SIGNIFICANT WEATHER AND/OR OBSTRUCTIONS TO VISIBILITY.

OHZ001>008-015>018-024>027-034-035-043-044-222100-
   NORTHWEST OHIO

CITY           SKY/WX    TMP DP  RH WIND       PRES   REMARKS
DEFIANCE       MOSUNNY   35  18  49 W7        30.28S WCI  29
FINDLAY        CLOUDY    34  19  54 NW8       30.26S WCI  27
TOLEDO EXPRESS MOSUNNY   36  19  50 VRB6      30.27S
TOLEDO EXEC    PTSUNNY   37  17  44 NW10      30.28R
LIMA           CLOUDY    33  21  61 NW6       30.25F WCI  28
$$

OHZ009>014-019>023-028>033-038-089-222100-
   NORTHEAST OHIO

CITY           SKY/WX    TMP DP  RH WIND       PRES   REMARKS
CLE-HOPKINS    CLOUDY    34  20  56 NW10      30.26S WCI  26
CLE-LAKEFRONT  CLOUDY    34  21  59 W13       30.23F WCI  25
CUY CO. ARPT   CLOUDY    34  25  69 NW14      30.23F WCI  24
LORAIN-ELYRIA  CLOUDY    32  16  51 NW9       30.25S WCI  24
ASHTABULA      CLOUDY    33  22  63 NW7       30.21S WCI  27
AKRON-CANTON   CLOUDY    34  20  56 NW8       30.21S WCI  27
WOOSTER        CLOUDY    31  22  69 N8        30.23S WCI  23
MANSFIELD      CLOUDY    31  20  63 NW7       30.23R WCI  24
YOUNGSTOWN     CLOUDY    32  20  61 W8        30.19S WCI  25
$$

OHZ042-051>053-060>062-070>072-077>081-222100-
  SOUTHWEST OHIO

CITY           SKY/WX    TMP DP  RH WIND       PRES   REMARKS
CINC-COVINGTON MOSUNNY   40  25  55 NW7       30.26F
CINC-LUNKEN    CLOUDY    38  26  62 N10       30.29F
HAMILTON       CLOUDY    38  25  59 NW7       30.29F
DAYTON         CLOUDY    37  24  59 N6        30.26F
WRIGHT-PAT AFB CLOUDY    38  20  48 NW8       30.26S
DAYTON GENERAL CLOUDY    36  23  59 VRB6G17   30.25F
WILMINGTON     SUNNY     36  24  62 N9        30.24F
$$

OHZ036-037-039>041-045>050-054>059-063>069-073>076-082>088-222100-
  CENTRAL AND SOUTHEAST OHIO

CITY           SKY/WX    TMP DP  RH WIND       PRES   REMARKS
COLUMBUS       CLOUDY    36  22  56 VRB7      30.25F
OSU AIRPORT    CLOUDY    34  22  61 VRB6      30.25F WCI  29
BOLTON FIELD   CLOUDY    34  21  60 N7        30.26S WCI  28
RICKENBACK AFB CLOUDY    35  22  61 NW8       30.26S WCI  28
NEWARK         CLOUDY    37  20  50 N6        30.23F
MARION         CLOUDY    33  19  56 NW8       30.25S WCI  26
LANCASTER      CLOUDY    35  24  64 NW9       30.25S WCI  28
ZANESVILLE     CLOUDY    38  22  52 NW5       30.23S
NEW PHILLY     NOT AVBL
$$



USA.gov is the U.S. government's official web portal to all federal, state and local government web resources and services.